Location: Piotrkow Trybunalski
(51.4000°N, 19.6830°E)
Time: 07:19:45
(UTC+02:00)

STRAND 1 - Pass Details

Date: 23 February 2024
Orbit: 764 x 779 km, 98.4° (Epoch: 24 April)

Event Time Altitude Azimuth Distance (km) Brightness Sun altitude
Rises 05:07:34 0° 165° (SSE) 3,249 ? -15.2°
Reaches altitude 10° 05:09:52 10° 166° (SSE) 2,327 ? -14.8°
Maximum altitude 05:15:01 85° 253° (WSW) 791 ? -14.0°
Drops below altitude 10° 05:20:13 10° 344° (NNW) 2,346 ? -13.2°
Sets 05:22:33 0° 345° (NNW) 3,278 ? -12.8°
